Regional Weather Roundup
Issued by NWS Sioux Falls, SD

Home | Current Version | Previous Version | Graphics & Text | Print | Product List | Glossary Off
Versions: 1 2 3 4 5 6 7 8 9 10 11 12 13 14 15 16 17 18 19 20 21 22 23 24 25 26 27 28 29 30 31 32 33 34 35 36 37 38 39 40 41 42 43 44 45 46 47 48 49 50

000
ASUS43 KFSD 300710
RWRFSD

WEATHER ROUNDUP FOR SE SOUTH DAKOTA/SW MINNESOTA/NW IOWA
NATIONAL WEATHER SERVICE SIOUX FALLS SD
200 AM CDT SUN AUG 30 2015

NOTE: "FAIR" INDICATES FEW OR NO CLOUDS BELOW 12,000 FEET WITH NO
SIGNIFICANT WEATHER AND OR OBSTRUCTIONS TO VISIBILITY.


SDZ038>040-050-052>070-300800-
SOUTHEAST SOUTH DAKOTA

CITY           SKY/WX    TMP DP  RH WIND       PRES   REMARKS
BROOKINGS      CLOUDY    64  61  88 S12       29.99S
CHAMBERLAIN    CLEAR     66  62  85 S6        29.91F
HURON          CLEAR     66  65  96 S12       29.90F
MADISON        CLOUDY    63  63 100 S12       29.98F FOG
MITCHELL       CLEAR     66  65  96 S10       29.94S
SIOUX FALLS    PTCLDY    63  60  90 S9        30.00S
WINNER         FAIR      73  59  61 S17       29.92S
YANKTON        CLEAR     63  61  94 SE6       29.98S
$$

MNZ071-072-080-081-089-090-097-098-300800-
SOUTHWEST MINNESOTA

CITY           SKY/WX    TMP DP  RH WIND       PRES   REMARKS
FAIRMONT       MOCLDY    61  55  82 S10       30.01F
JACKSON        FOG       61  61 100 S14       30.03S VSB 3/4
LUVERNE        CLOUDY    63  61  94 S7        30.02S FOG
MARSHALL       CLEAR     63  57  82 SW14      29.96F
MONTEVIDEO     CLEAR     63  63 100 S7        29.96S
PIPESTONE      CLOUDY    63  61  94 SW12      30.01R FOG
REDWOOD FALLS  MOCLDY    61  60  97 S8        29.97F
TRACY          CLEAR     64  63  96 SW18G25   29.97S
WINDOM         CLOUDY    63  61  94 S10       30.01S FOG
WORTHINGTON    CLOUDY    61  57  88 S10       30.02S
$$

IAZ001>003-012>014-020>022-031-032-NEZ013-014-SDZ071-300800-
NORTHWEST IOWA

CITY           SKY/WX    TMP DP  RH WIND       PRES   REMARKS
CHEROKEE       CLOUDY    62  62 100 S7        30.04S
DENISON        CLOUDY    64  63  94 VRB6      30.03S
ESTHERVILLE    CLOUDY    61  60  97 S13       30.03S
LE MARS        CLOUDY    64  63  94 S9        30.03S
ORANGE CITY    CLOUDY    63  63 100 S12       30.03S
SHELDON        CLOUDY    63  61  94 S8        30.02S
SIOUX CITY     NOT AVBL
SPENCER        CLOUDY    61  59  93 S10       30.03F
STORM LAKE     CLOUDY    61  61 100 S7G14     30.05F
$$

ABBREVIATIONS USED IN REMARKS
   TC - TEMPERATURE IN CELSIUS
  WCI - WIND CHILL INDEX
   HX - HEAT INDEX
  VSB - VISIBILITY



USA.gov is the U.S. government's official web portal to all federal, state and local government web resources and services.